Regional Weather Roundup
Issued by NWS Bismarck, ND

Home | Current Version | Previous Version | Text Only | Print | Product List | Glossary On
Versions: 1 2 3 4 5 6 7 8 9 10 11 12 13 14 15 16 17 18 19 20 21 22 23 24 25 26 27 28 29 30 31 32 33 34 35 36 37 38 39 40 41 42 43 44 45 46 47 48 49 50
000
ASUS43 KBIS 220420
RWRBIS

NWR BROADCAST TEXT
NATIONAL WEATHER SERVICE BISMARCK ND
1000 PM CST SUN DEC 21 2014

NOTE: "FAIR" INDICATES FEW OR NO CLOUDS BELOW 12,000 FEET WITH NO
SIGNIFICANT WEATHER AND/OR OBSTRUCTIONS TO VISIBILITY.


CITY           SKY/WX    TMP DP  RH WIND       PRES   REMARKS
WILLISTON      CLOUDY    31  27  85 W3        29.37S
MINOT          CLOUDY    30  28  92 SE10      29.42S FOG
MINOT AFB      FRZ DRZL  30  30 100 SE12      29.42S
BISMARCK       CLOUDY    29  29 100 SE10      29.45F FOG     WCI  20
DICKINSON      CLOUDY    37  34  89 W9        29.36S
GARRISON         N/A     27  25  92 SE9       29.41S WCI  18
HETTINGER ARPT CLOUDY    36  33  89 W9        29.41R
JAMESTOWN      CLOUDY    31  30  96 SE7       29.48S FOG
BEACH          CLOUDY    36  36 100 W10       29.41R
CARRINGTON     FOG       30  30 100 MISG      29.49S VSB 1/2
CROSBY         CLOUDY    28  28 100 SE3       29.38S
HARVEY         CLOUDY    30  30 100 SE8       29.47S FOG
HAZEN          CLOUDY    28  27  93 CALM      29.42S
LINTON         CLOUDY    28  28 100 SE7       29.44F FOG
MANDAN         FOG       28  28 100 SE7       29.44S VSB 1/2
OAKES            N/A     32  32 100 E9        29.49S FOG
RUGBY          CLOUDY    28  28 100 S16       29.48S FOG     WCI  17
STANLEY        CLOUDY    30  30 100 SE5       29.38S
TIOGA          CLOUDY    30  30 100 S3        29.40R
WATFORD CITY   CLOUDY    36  36 100 SW5       29.36R
$$

CITY           SKY/WX    TMP DP  RH WIND       PRES   REMARKS
GRAND FORKS    CLOUDY    33  31  92 SE10      29.57S
GRAND FORKS AF CLOUDY    32  32 100 S10       29.56F
DEVILS LAKE    CLOUDY    30  25  80 S14       29.49S WCI  20
FARGO          CLOUDY    36  33  89 SE13      29.56S FOG
CANDO          CLOUDY    28  28 100 S14       29.51S FOG     WCI  17
CAVALIER       CLOUDY    32  32 100 SE8       29.56F FOG
GWINNER        CLOUDY    34  34 100 E9        29.51F
LANGDON        FOG       30  28  93 N5        29.51S VSB 1/4
ROLLA          FOG       27  27 100 S13G20    29.49S VSB 1/4 WCI  16
WALHALLA         N/A     32  32 100 SE12      29.55F FOG
$$

CITY           SKY/WX    TMP DP  RH WIND       PRES   REMARKS
ABERDEEN       CLOUDY    36  33  89 S10       29.47S
MOBRIDGE       FOG       29  28  96 SE3       29.41S VSB 1/2
BUFFALO          N/A     39  36  89 W20       29.37R
RAPID CITY     LGT RAIN  41  35  79 NW25G32   29.47R
GLASGOW        MIX PCPN  35  31  85 NW23G33   29.45R
SIDNEY         CLOUDY    34  34 100 CALM      29.40S
WOLF POINT     CLOUDY    35  32  88 W10       29.41R
GLENDIVE       CLOUDY    37  34  87 W16       29.42R
MILES CITY     CLOUDY    39  33  79 W22G30    29.50R
BAKER          LGT RAIN  38  32  79 W17G24    29.44R
$$

CITY           SKY/WX    TMP DP  RH WIND       PRES   REMARKS
BILLINGS       CLOUDY    42  20  41 W17       29.65R
GREAT FALLS    PTCLDY    32  24  72 W9        29.67R
REGINA         CLOUDY    25  23  93 E7        29.41R WCI  17
ESTEVAN        FOG       28  28 100 E10       29.38S VSB 1/4 WCI  19
$$



USA.gov is the U.S. government's official web portal to all federal, state and local government web resources and services.